| time (UTC) | temp C | wind direction | speed KPH | gust KPH | rain 1hr cm | rain 24hr cm | rain mn cm | humidity % | barometer mb |
| 20260507051523 | 11 | 345 | 0.0 | 4.8 | 0.00 | 0.30 | 0.00 | 96 | 1007.1 |
| 20260507051008 | 11 | 340 | 1.6 | 4.8 | 0.00 | 0.30 | 0.00 | 96 | 1007.2 |
| 20260507050506 | 11 | 352 | 1.6 | 4.8 | 0.00 | 0.30 | 0.00 | 96 | 1007.2 |
| 20260507050031 | 11 | 341 | 1.6 | 4.8 | 0.00 | 0.30 | 0.00 | 96 | 1007.3 |
| 20260507045507 | 11 | 5 | 0.0 | 1.6 | 0.00 | 0.30 | 0.00 | 96 | 1007.3 |
| 20260507045008 | 11 | 5 | 0.0 | 1.6 | 0.00 | 0.30 | 0.00 | 96 | 1007.2 |
| 20260507044516 | 11 | 5 | 0.0 | 4.8 | 0.00 | 0.30 | 0.00 | 96 | 1007.2 |
| 20260507044008 | 11 | 5 | 0.0 | 4.8 | 0.00 | 0.30 | 0.00 | 96 | 1007.2 |
| 20260507043504 | 11 | 352 | 0.0 | 6.4 | 0.00 | 0.30 | 0.00 | 96 | 1007.1 |
| 20260507043012 | 12 | 352 | 0.0 | 6.4 | 0.00 | 0.30 | 0.00 | 96 | 1007.1 |
| 20260507042507 | 12 | 344 | 1.6 | 6.4 | 0.00 | 0.30 | 0.00 | 96 | 1007.1 |
| 20260507042003 | 12 | 321 | 0.0 | 4.8 | 0.00 | 0.30 | 0.00 | 96 | 1007.1 |
| 20260507041523 | 12 | 344 | 0.0 | 4.8 | 0.00 | 0.30 | 0.00 | 96 | 1007.2 |
| 20260507041003 | 12 | 351 | 0.0 | 6.4 | 0.00 | 0.30 | 0.00 | 96 | 1007.3 |
| 20260507040502 | 12 | 360 | 0.0 | 6.4 | 0.00 | 0.30 | 0.00 | 96 | 1007.4 |
| 20260507040005 | 12 | 346 | 0.0 | 9.7 | 0.00 | 0.30 | 0.00 | 96 | 1007.4 |
| 20260507035503 | 12 | 347 | 1.6 | 12.9 | 0.00 | 0.30 | 0.30 | 96 | 1007.3 |
| 20260507035003 | 12 | 334 | 1.6 | 12.9 | 0.00 | 0.30 | 0.30 | 96 | 1007.2 |
| 20260507034504 | 12 | 339 | 1.6 | 8.0 | 0.00 | 0.30 | 0.30 | 96 | 1007.3 |
| 20260507034004 | 13 | 335 | 3.2 | 8.0 | 0.00 | 0.30 | 0.30 | 96 | 1007.5 |
| 20260507033504 | 13 | 340 | 3.2 | 8.0 | 0.00 | 0.30 | 0.30 | 97 | 1007.4 |
| 20260507033014 | 13 | 352 | 3.2 | 6.4 | 0.00 | 0.30 | 0.30 | 97 | 1007.2 |
| 20260507032504 | 13 | 339 | 1.6 | 4.8 | 0.00 | 0.30 | 0.30 | 97 | 1007.2 |
| 20260507032006 | 13 | 352 | 3.2 | 4.8 | 0.00 | 0.30 | 0.30 | 97 | 1007.2 |
| 20260507031524 | 13 | 347 | 0.0 | 3.2 | 0.00 | 0.30 | 0.30 | 97 | 1007.1 |
| 20260507031005 | 13 | 350 | 0.0 | 4.8 | 0.00 | 0.30 | 0.30 | 97 | 1007.0 |
| 20260507030506 | 13 | 350 | 0.0 | 4.8 | 0.00 | 0.30 | 0.30 | 97 | 1007.0 |
| 20260507030016 | 13 | 10 | 1.6 | 6.4 | 0.00 | 0.30 | 0.30 | 97 | 1007.1 |
| 20260507025507 | 13 | 23 | 0.0 | 6.4 | 0.00 | 0.30 | 0.30 | 97 | 1007.0 |
| 20260507025004 | 13 | 324 | 1.6 | 4.8 | 0.00 | 0.30 | 0.30 | 97 | 1006.9 |
| 20260507024504 | 13 | 325 | 1.6 | 4.8 | 0.00 | 0.30 | 0.30 | 97 | 1006.9 |
| 20260507024003 | 13 | 336 | 1.6 | 8.0 | 0.00 | 0.30 | 0.30 | 97 | 1006.9 |
| 20260507023507 | 13 | 314 | 3.2 | 8.0 | 0.00 | 0.30 | 0.30 | 97 | 1006.9 |
| 20260507023007 | 13 | 340 | 1.6 | 12.9 | 0.00 | 0.30 | 0.30 | 97 | 1007.0 |
| 20260507022507 | 13 | 342 | 1.6 | 12.9 | 0.00 | 0.30 | 0.30 | 97 | 1007.1 |
| 20260507022010 | 13 | 338 | 3.2 | 9.7 | 0.00 | 0.30 | 0.30 | 97 | 1006.9 |
| 20260507021503 | 13 | 273 | 1.6 | 6.4 | 0.00 | 0.30 | 0.30 | 97 | 1006.9 |
| 20260507021004 | 13 | 338 | 1.6 | 8.0 | 0.00 | 0.30 | 0.30 | 97 | 1007.0 |
| 20260507020505 | 13 | 346 | 3.2 | 8.0 | 0.00 | 0.30 | 0.30 | 97 | 1007.1 |
| 20260507020020 | 13 | 268 | 1.6 | 6.4 | 0.00 | 0.30 | 0.30 | 97 | 1007.1 |
| 20260507015504 | 13 | 251 | 1.6 | 6.4 | 0.00 | 0.30 | 0.30 | 97 | 1007.1 |
| 20260507015004 | 13 | 340 | 0.0 | 6.4 | 0.00 | 0.30 | 0.30 | 97 | 1007.2 |
| 20260507014530 | 13 | 343 | 1.6 | 8.0 | 0.00 | 0.30 | 0.30 | 97 | 1007.1 |
| 20260507014009 | 13 | 344 | 1.6 | 8.0 | 0.00 | 0.30 | 0.30 | 97 | 1007.1 |
| 20260507013505 | 13 | 261 | 1.6 | 6.4 | 0.00 | 0.30 | 0.30 | 97 | 1007.0 |
| 20260507013004 | 13 | 329 | 1.6 | 11.3 | 0.00 | 0.30 | 0.30 | 97 | 1007.1 |
| 20260507012504 | 13 | 347 | 3.2 | 11.3 | 0.00 | 0.30 | 0.30 | 97 | 1007.1 |
| 20260507012005 | 13 | 331 | 1.6 | 11.3 | 0.00 | 0.30 | 0.30 | 96 | 1006.9 |
| 20260507011516 | 13 | 306 | 0.0 | 11.3 | 0.00 | 0.30 | 0.30 | 96 | 1007.0 |
| 20260507011005 | 13 | 338 | 0.0 | 9.7 | 0.00 | 0.30 | 0.30 | 96 | 1007.0 |
| 20260507010506 | 13 | 287 | 1.6 | 9.7 | 0.00 | 0.30 | 0.30 | 96 | 1007.0 |
| 20260507010008 | 13 | 5 | 1.6 | 9.7 | 0.00 | 0.30 | 0.30 | 96 | 1007.2 |
| 20260507005504 | 13 | 269 | 1.6 | 9.7 | 0.00 | 0.30 | 0.30 | 96 | 1007.2 |
| 20260507005004 | 13 | 325 | 3.2 | 9.7 | 0.00 | 0.30 | 0.30 | 96 | 1007.2 |
| 20260507004532 | 13 | 360 | 3.2 | 17.7 | 0.00 | 0.30 | 0.30 | 96 | 1007.3 |
| 20260507004004 | 13 | 340 | 1.6 | 17.7 | 0.00 | 0.30 | 0.30 | 96 | 1007.4 |
| 20260507003509 | 13 | 342 | 1.6 | 11.3 | 0.00 | 0.30 | 0.30 | 96 | 1007.4 |
| 20260507003027 | 13 | 346 | 1.6 | 11.3 | 0.00 | 0.30 | 0.30 | 96 | 1007.3 |
| 20260507002504 | 13 | 340 | 3.2 | 11.3 | 0.00 | 0.30 | 0.30 | 96 | 1007.3 |
| 20260507002004 | 13 | 5 | 3.2 | 12.9 | 0.00 | 0.30 | 0.30 | 96 | 1007.4 |
| 20260507001525 | 13 | 324 | 3.2 | 12.9 | 0.00 | 0.30 | 0.30 | 96 | 1007.4 |
| 20260507001004 | 13 | 332 | 3.2 | 8.0 | 0.00 | 0.30 | 0.30 | 96 | 1007.2 |
| 20260507000505 | 13 | 22 | 3.2 | 11.3 | 0.00 | 0.30 | 0.30 | 96 | 1007.2 |
| 20260507000014 | 13 | 310 | 3.2 | 11.3 | 0.00 | 0.30 | 0.30 | 96 | 1007.2 |
| 20260506235504 | 13 | 290 | 3.2 | 12.9 | 0.00 | 0.30 | 0.30 | 96 | 1007.1 |
| 20260506235005 | 13 | 16 | 3.2 | 12.9 | 0.00 | 0.30 | 0.30 | 96 | 1007.1 |
| 20260506234516 | 13 | 360 | 3.2 | 9.7 | 0.00 | 0.30 | 0.30 | 96 | 1007.1 |
| 20260506234008 | 13 | 303 | 3.2 | 8.0 | 0.00 | 0.30 | 0.30 | 96 | 1007.1 |
| 20260506233504 | 13 | 351 | 3.2 | 12.9 | 0.00 | 0.30 | 0.30 | 96 | 1007.1 |
| 20260506233020 | 13 | 352 | 3.2 | 17.7 | 0.00 | 0.30 | 0.30 | 96 | 1006.9 |
| 20260506232503 | 13 | 349 | 3.2 | 20.9 | 0.00 | 0.30 | 0.30 | 96 | 1006.9 |
| 20260506232007 | 13 | 277 | 3.2 | 20.9 | 0.00 | 0.30 | 0.30 | 96 | 1007.0 |
| 20260506231533 | 13 | 12 | 1.6 | 12.9 | 0.00 | 0.30 | 0.30 | 96 | 1007.0 |
| 20260506231006 | 13 | 13 | 1.6 | 11.3 | 0.00 | 0.30 | 0.30 | 96 | 1007.0 |
| 20260506230506 | 13 | 13 | 3.2 | 11.3 | 0.00 | 0.30 | 0.30 | 96 | 1007.0 |
| 20260506230024 | 13 | 284 | 3.2 | 11.3 | 0.03 | 0.30 | 0.30 | 96 | 1006.9 |
| 20260506225506 | 13 | 336 | 3.2 | 6.4 | 0.03 | 0.30 | 0.30 | 96 | 1006.9 |
| 20260506225006 | 13 | 352 | 0.0 | 12.9 | 0.03 | 0.30 | 0.30 | 95 | 1006.9 |
| 20260506224512 | 13 | 352 | 3.2 | 12.9 | 0.03 | 0.30 | 0.30 | 95 | 1006.9 |
| 20260506224003 | 13 | 340 | 1.6 | 11.3 | 0.03 | 0.30 | 0.30 | 95 | 1006.8 |
| 20260506223507 | 13 | 360 | 3.2 | 11.3 | 0.03 | 0.30 | 0.30 | 95 | 1006.8 |
| 20260506223025 | 13 | 9 | 3.2 | 9.7 | 0.03 | 0.30 | 0.30 | 95 | 1006.9 |
| 20260506222503 | 13 | 295 | 1.6 | 9.7 | 0.03 | 0.30 | 0.30 | 95 | 1006.9 |
| 20260506222002 | 13 | 340 | 3.2 | 8.0 | 0.05 | 0.30 | 0.30 | 95 | 1006.9 |
| 20260506221504 | 13 | 266 | 1.6 | 9.7 | 0.05 | 0.30 | 0.30 | 95 | 1006.8 |
| 20260506221002 | 13 | 327 | 4.8 | 11.3 | 0.08 | 0.30 | 0.30 | 95 | 1006.7 |
| 20260506220502 | 13 | 263 | 3.2 | 12.9 | 0.10 | 0.30 | 0.30 | 95 | 1006.8 |
| 20260506220004 | 13 | 5 | 3.2 | 12.9 | 0.08 | 0.28 | 0.28 | 95 | 1006.8 |
| 20260506215504 | 13 | 65 | 1.6 | 8.0 | 0.08 | 0.28 | 0.28 | 95 | 1006.8 |
| 20260506215006 | 13 | 245 | 0.0 | 11.3 | 0.08 | 0.28 | 0.28 | 95 | 1006.7 |
| 20260506214503 | 13 | 311 | 1.6 | 12.9 | 0.08 | 0.28 | 0.28 | 95 | 1006.8 |
| 20260506214002 | 13 | 338 | 3.2 | 12.9 | 0.08 | 0.28 | 0.28 | 95 | 1006.8 |
| 20260506213503 | 14 | 269 | 4.8 | 12.9 | 0.08 | 0.28 | 0.28 | 95 | 1007.0 |
| 20260506213003 | 14 | 266 | 3.2 | 12.9 | 0.08 | 0.28 | 0.28 | 95 | 1007.0 |
| 20260506212503 | 14 | 261 | 4.8 | 11.3 | 0.08 | 0.28 | 0.28 | 95 | 1007.1 |
| 20260506212006 | 14 | 296 | 3.2 | 11.3 | 0.05 | 0.25 | 0.25 | 95 | 1007.1 |
| 20260506211508 | 14 | 300 | 0.0 | 9.7 | 0.05 | 0.25 | 0.25 | 95 | 1007.1 |
| 20260506211003 | 14 | 5 | 1.6 | 16.1 | 0.03 | 0.23 | 0.23 | 95 | 1007.1 |
| 20260506210503 | 14 | 309 | 3.2 | 16.1 | 0.00 | 0.20 | 0.20 | 95 | 1007.2 |
| 20260506210002 | 14 | 311 | 3.2 | 17.7 | 0.00 | 0.20 | 0.20 | 95 | 1007.3 |
| 20260506205501 | 14 | 318 | 4.8 | 17.7 | 0.00 | 0.20 | 0.20 | 95 | 1007.3 |
| 20260506205002 | 14 | 122 | 3.2 | 14.5 | 0.00 | 0.20 | 0.20 | 95 | 1007.4 |
| 20260506204506 | 14 | 332 | 3.2 | 12.9 | 0.00 | 0.20 | 0.20 | 95 | 1007.5 |
| 20260506204003 | 14 | 9 | 4.8 | 16.1 | 0.00 | 0.20 | 0.20 | 95 | 1007.5 |
| 20260506203502 | 14 | 333 | 1.6 | 16.1 | 0.00 | 0.20 | 0.20 | 95 | 1007.5 |
| 20260506203004 | 14 | 306 | 3.2 | 14.5 | 0.00 | 0.20 | 0.20 | 95 | 1007.4 |
| 20260506202504 | 14 | 319 | 3.2 | 14.5 | 0.00 | 0.20 | 0.20 | 95 | 1007.4 |
| 20260506202004 | 14 | 54 | 3.2 | 16.1 | 0.00 | 0.20 | 0.20 | 95 | 1007.4 |
| 20260506201503 | 14 | 332 | 1.6 | 16.1 | 0.00 | 0.20 | 0.20 | 94 | 1007.5 |
| 20260506201004 | 14 | 13 | 3.2 | 9.7 | 0.03 | 0.20 | 0.20 | 94 | 1007.5 |
| 20260506200503 | 14 | 53 | 1.6 | 9.7 | 0.03 | 0.20 | 0.20 | 94 | 1007.5 |
| 20260506200005 | 14 | 13 | 1.6 | 14.5 | 0.05 | 0.20 | 0.20 | 94 | 1007.7 |
| 20260506195503 | 14 | 352 | 3.2 | 14.5 | 0.08 | 0.20 | 0.20 | 94 | 1007.7 |
| 20260506195003 | 14 | 287 | 4.8 | 16.1 | 0.10 | 0.20 | 0.20 | 94 | 1007.8 |
| 20260506194504 | 13 | 344 | 4.8 | 16.1 | 0.13 | 0.20 | 0.20 | 94 | 1007.8 |
| 20260506194004 | 14 | 241 | 3.2 | 12.9 | 0.15 | 0.20 | 0.20 | 94 | 1007.9 |
| 20260506193504 | 14 | 323 | 3.2 | 11.3 | 0.15 | 0.20 | 0.20 | 94 | 1007.8 |
| 20260506193004 | 14 | 320 | 4.8 | 14.5 | 0.15 | 0.20 | 0.20 | 94 | 1007.9 |
| 20260506192503 | 14 | 5 | 3.2 | 19.3 | 0.18 | 0.20 | 0.20 | 94 | 1007.9 |
| 20260506192004 | 14 | 303 | 3.2 | 19.3 | 0.18 | 0.20 | 0.20 | 93 | 1007.9 |
| 20260506191504 | 14 | 294 | 4.8 | 11.3 | 0.18 | 0.20 | 0.20 | 93 | 1008.0 |
| 20260506191003 | 14 | 318 | 3.2 | 16.1 | 0.18 | 0.18 | 0.18 | 93 | 1008.0 |
| 20260506190507 | 14 | 254 | 4.8 | 16.1 | 0.18 | 0.18 | 0.18 | 92 | 1008.2 |
| 20260506190004 | 14 | 338 | 4.8 | 16.1 | 0.15 | 0.15 | 0.15 | 92 | 1008.0 |
| 20260506185504 | 14 | 15 | 1.6 | 16.1 | 0.13 | 0.13 | 0.13 | 91 | 1008.0 |
| 20260506185003 | 14 | 345 | 6.4 | 17.7 | 0.10 | 0.10 | 0.10 | 91 | 1007.9 |
| 20260506184506 | 14 | 308 | 3.2 | 17.7 | 0.08 | 0.08 | 0.08 | 90 | 1008.1 |
| 20260506184006 | 15 | 330 | 3.2 | 16.1 | 0.05 | 0.05 | 0.05 | 90 | 1008.1 |
| 20260506183503 | 15 | 334 | 3.2 | 16.1 | 0.05 | 0.05 | 0.05 | 89 | 1008.3 |
| 20260506183004 | 15 | 31 | 3.2 | 16.1 | 0.05 | 0.05 | 0.05 | 89 | 1008.4 |
| 20260506182504 | 15 | 261 | 4.8 | 16.1 | 0.03 | 0.03 | 0.03 | 89 | 1008.5 |
| 20260506182004 | 15 | 294 | 4.8 | 16.1 | 0.03 | 0.03 | 0.03 | 88 | 1008.6 |
| 20260506181504 | 15 | 326 | 4.8 | 16.1 | 0.03 | 0.03 | 0.03 | 87 | 1008.7 |
| 20260506181004 | 15 | 346 | 3.2 | 12.9 | 0.00 | 0.00 | 0.00 | 87 | 1008.8 |
| 20260506180504 | 15 | 360 | 1.6 | 12.9 | 0.00 | 0.00 | 0.00 | 86 | 1008.8 |
| 20260506180011 | 16 | 317 | 3.2 | 17.7 | 0.00 | 0.00 | 0.00 | 84 | 1008.7 |
| 20260506175504 | 16 | 343 | 6.4 | 17.7 | 0.00 | 0.00 | 0.00 | 83 | 1008.8 |
| 20260506175004 | 16 | 329 | 8.0 | 29.0 | 0.00 | 0.00 | 0.00 | 81 | 1008.9 |
| 20260506174510 | 16 | 10 | 4.8 | 29.0 | 0.00 | 0.00 | 0.00 | 80 | 1008.9 |
| 20260506174004 | 16 | 61 | 6.4 | 19.3 | 0.00 | 0.00 | 0.00 | 79 | 1009.0 |
| 20260506173504 | 17 | 333 | 6.4 | 19.3 | 0.00 | 0.00 | 0.00 | 78 | 1009.0 |
| 20260506173008 | 17 | 360 | 8.0 | 24.1 | 0.00 | 0.00 | 0.00 | 77 | 1009.2 |
| 20260506172502 | 17 | 184 | 6.4 | 24.1 | 0.00 | 0.00 | 0.00 | 76 | 1009.1 |
| 20260506172002 | 17 | 54 | 8.0 | 16.1 | 0.00 | 0.00 | 0.00 | 76 | 1009.1 |
| 20260506171507 | 18 | 24 | 3.2 | 19.3 | 0.00 | 0.00 | 0.00 | 75 | 1009.2 |
| 20260506171006 | 18 | 330 | 4.8 | 24.1 | 0.00 | 0.00 | 0.00 | 74 | 1009.2 |
| 20260506170504 | 18 | 316 | 4.8 | 24.1 | 0.00 | 0.00 | 0.00 | 74 | 1009.3 |
| 20260506170008 | 18 | 261 | 9.7 | 22.5 | 0.00 | 0.00 | 0.00 | 73 | 1009.3 |
| 20260506165505 | 18 | 325 | 8.0 | 22.5 | 0.00 | 0.00 | 0.00 | 73 | 1009.3 |
| 20260506165003 | 19 | 317 | 8.0 | 19.3 | 0.00 | 0.00 | 0.00 | 73 | 1009.2 |
| 20260506164509 | 19 | 253 | 4.8 | 17.7 | 0.00 | 0.00 | 0.00 | 73 | 1009.2 |
| 20260506164007 | 19 | 348 | 6.4 | 20.9 | 0.00 | 0.00 | 0.00 | 74 | 1009.1 |
| 20260506163504 | 19 | 321 | 6.4 | 20.9 | 0.00 | 0.00 | 0.00 | 73 | 1009.1 |
| 20260506163011 | 19 | 323 | 4.8 | 19.3 | 0.00 | 0.00 | 0.00 | 74 | 1009.2 |
| 20260506162505 | 19 | 298 | 6.4 | 19.3 | 0.00 | 0.00 | 0.00 | 71 | 1009.4 |
| 20260506162006 | 20 | 246 | 8.0 | 19.3 | 0.00 | 0.00 | 0.00 | 74 | 1009.4 |
| 20260506161512 | 19 | 261 | 4.8 | 27.4 | 0.00 | 0.00 | 0.00 | 73 | 1009.4 |
| 20260506161002 | 19 | 323 | 4.8 | 27.4 | 0.00 | 0.00 | 0.00 | 73 | 1009.6 |
| 20260506160502 | 20 | 53 | 8.0 | 27.4 | 0.00 | 0.00 | 0.00 | 71 | 1009.7 |
| 20260506160011 | 20 | 342 | 6.4 | 22.5 | 0.00 | 0.00 | 0.00 | 70 | 1009.6 |
| 20260506155503 | 20 | 325 | 6.4 | 22.5 | 0.00 | 0.00 | 0.00 | 69 | 1009.6 |
| 20260506155003 | 20 | 263 | 6.4 | 20.9 | 0.00 | 0.00 | 0.00 | 70 | 1009.6 |
| 20260506154510 | 20 | 213 | 6.4 | 27.4 | 0.00 | 0.00 | 0.00 | 69 | 1009.7 |
| 20260506154003 | 20 | 317 | 9.7 | 27.4 | 0.00 | 0.00 | 0.00 | 68 | 1009.7 |
| 20260506153503 | 20 | 264 | 3.2 | 16.1 | 0.00 | 0.00 | 0.00 | 71 | 1009.7 |
| 20260506153013 | 20 | 298 | 4.8 | 16.1 | 0.00 | 0.00 | 0.00 | 71 | 1009.7 |
| 20260506152504 | 20 | 311 | 4.8 | 24.1 | 0.00 | 0.00 | 0.00 | 70 | 1009.7 |
| 20260506152006 | 20 | 186 | 9.7 | 24.1 | 0.00 | 0.00 | 0.00 | 69 | 1009.9 |
| 20260506151513 | 20 | 270 | 4.8 | 19.3 | 0.00 | 0.00 | 0.00 | 69 | 1009.8 |
| 20260506151004 | 20 | 292 | 9.7 | 19.3 | 0.00 | 0.00 | 0.00 | 69 | 1009.9 |
| 20260506150506 | 20 | 340 | 6.4 | 19.3 | 0.00 | 0.00 | 0.00 | 70 | 1010.0 |
| 20260506150012 | 20 | 327 | 4.8 | 17.7 | 0.00 | 0.00 | 0.00 | 71 | 1010.0 |
| 20260506145506 | 20 | 276 | 4.8 | 16.1 | 0.00 | 0.00 | 0.00 | 69 | 1010.0 |
| 20260506145006 | 20 | 323 | 4.8 | 22.5 | 0.00 | 0.00 | 0.00 | 70 | 1010.0 |
| 20260506144515 | 20 | 13 | 6.4 | 22.5 | 0.00 | 0.00 | 0.00 | 70 | 1009.9 |
| 20260506144004 | 20 | 211 | 3.2 | 20.9 | 0.00 | 0.00 | 0.00 | 73 | 1010.0 |
| 20260506143504 | 19 | 260 | 8.0 | 20.9 | 0.00 | 0.00 | 0.00 | 71 | 1010.0 |
| 20260506143026 | 19 | 351 | 8.0 | 25.7 | 0.00 | 0.00 | 0.00 | 74 | 1010.1 |
| 20260506142506 | 19 | 344 | 12.9 | 29.0 | 0.00 | 0.00 | 0.00 | 71 | 1010.1 |
| 20260506142003 | 19 | 352 | 6.4 | 29.0 | 0.00 | 0.00 | 0.00 | 73 | 1010.2 |
| 20260506141514 | 18 | 13 | 8.0 | 19.3 | 0.00 | 0.00 | 0.00 | 74 | 1010.1 |
| 20260506141006 | 18 | 28 | 4.8 | 14.5 | 0.00 | 0.00 | 0.00 | 75 | 1010.0 |
| 20260506140506 | 18 | 308 | 4.8 | 16.1 | 0.00 | 0.00 | 0.00 | 73 | 1010.0 |
| 20260506140015 | 18 | 234 | 4.8 | 16.1 | 0.00 | 0.00 | 0.00 | 74 | 1010.0 |
| 20260506135505 | 18 | 331 | 4.8 | 22.5 | 0.00 | 0.00 | 0.00 | 74 | 1009.9 |
| 20260506135007 | 18 | 107 | 6.4 | 22.5 | 0.00 | 0.00 | 0.00 | 74 | 1009.9 |
| 20260506134516 | 18 | 310 | 9.7 | 19.3 | 0.00 | 0.00 | 0.00 | 74 | 1009.9 |
| 20260506134008 | 18 | 327 | 6.4 | 17.7 | 0.00 | 0.00 | 0.00 | 74 | 1010.0 |
| 20260506133505 | 18 | 352 | 4.8 | 17.7 | 0.00 | 0.00 | 0.00 | 75 | 1010.0 |
| 20260506133020 | 18 | 280 | 4.8 | 17.7 | 0.00 | 0.00 | 0.00 | 74 | 1009.9 |
| 20260506132505 | 18 | 190 | 4.8 | 16.1 | 0.00 | 0.00 | 0.00 | 75 | 1010.0 |
| 20260506132008 | 18 | 292 | 4.8 | 20.9 | 0.00 | 0.00 | 0.00 | 74 | 1010.1 |
| 20260506131504 | 18 | 80 | 6.4 | 20.9 | 0.00 | 0.00 | 0.00 | 74 | 1010.0 |
| 20260506131007 | 18 | 18 | 6.4 | 17.7 | 0.00 | 0.00 | 0.00 | 75 | 1010.1 |
| 20260506130505 | 18 | 315 | 8.0 | 16.1 | 0.00 | 0.00 | 0.00 | 77 | 1010.1 |
| 20260506130019 | 18 | 259 | 6.4 | 22.5 | 0.00 | 0.00 | 0.00 | 77 | 1010.2 |
| 20260506125503 | 18 | 24 | 4.8 | 22.5 | 0.00 | 0.00 | 0.00 | 77 | 1010.3 |
| 20260506125005 | 18 | 315 | 4.8 | 19.3 | 0.00 | 0.00 | 0.00 | 79 | 1010.3 |
| 20260506124503 | 17 | 325 | 4.8 | 16.1 | 0.00 | 0.00 | 0.00 | 80 | 1010.3 |
| 20260506124003 | 17 | 285 | 4.8 | 14.5 | 0.00 | 0.00 | 0.00 | 82 | 1010.3 |
| 20260506123503 | 16 | 48 | 1.6 | 16.1 | 0.00 | 0.00 | 0.00 | 83 | 1010.2 |
| 20260506123008 | 16 | 205 | 1.6 | 17.7 | 0.00 | 0.00 | 0.00 | 84 | 1010.4 |
| 20260506122503 | 16 | 333 | 4.8 | 17.7 | 0.00 | 0.00 | 0.00 | 83 | 1010.3 |
| 20260506122002 | 16 | 10 | 4.8 | 12.9 | 0.00 | 0.00 | 0.00 | 85 | 1010.5 |
| 20260506121520 | 16 | 352 | 3.2 | 14.5 | 0.00 | 0.00 | 0.00 | 84 | 1010.5 |
| 20260506121004 | 16 | 5 | 6.4 | 14.5 | 0.00 | 0.00 | 0.00 | 84 | 1010.5 |
| 20260506120504 | 16 | 223 | 4.8 | 12.9 | 0.00 | 0.00 | 0.00 | 85 | 1010.6 |
| 20260506120008 | 15 | 333 | 3.2 | 14.5 | 0.00 | 0.00 | 0.00 | 86 | 1010.6 |
| 20260506115505 | 15 | 46 | 4.8 | 14.5 | 0.00 | 0.00 | 0.00 | 86 | 1010.7 |
| 20260506115005 | 15 | 20 | 6.4 | 16.1 | 0.00 | 0.00 | 0.00 | 86 | 1010.5 |
| 20260506114522 | 15 | 313 | 4.8 | 16.1 | 0.00 | 0.00 | 0.00 | 87 | 1010.6 |
| 20260506114008 | 15 | 312 | 1.6 | 6.4 | 0.00 | 0.00 | 0.00 | 88 | 1010.8 |
| 20260506113506 | 15 | 32 | 3.2 | 12.9 | 0.00 | 0.00 | 0.00 | 89 | 1010.8 |
| 20260506113028 | 14 | 332 | 3.2 | 12.9 | 0.00 | 0.00 | 0.00 | 89 | 1010.9 |
| 20260506112506 | 14 | 199 | 4.8 | 11.3 | 0.00 | 0.00 | 0.00 | 90 | 1010.8 |
| 20260506112008 | 13 | 198 | 1.6 | 8.0 | 0.00 | 0.00 | 0.00 | 90 | 1010.9 |
| 20260506111508 | 13 | 275 | 0.0 | 14.5 | 0.00 | 0.00 | 0.00 | 89 | 1010.8 |
| 20260506111008 | 13 | 343 | 3.2 | 14.5 | 0.00 | 0.00 | 0.00 | 90 | 1011.0 |
| 20260506110503 | 13 | 282 | 0.0 | 14.5 | 0.00 | 0.00 | 0.00 | 90 | 1011.0 |
| 20260506110016 | 13 | 277 | 3.2 | 9.7 | 0.00 | 0.00 | 0.00 | 91 | 1011.0 |
| 20260506105506 | 13 | 298 | 3.2 | 9.7 | 0.00 | 0.00 | 0.00 | 91 | 1010.9 |
| 20260506105005 | 13 | 5 | 1.6 | 12.9 | 0.00 | 0.00 | 0.00 | 91 | 1010.8 |
| 20260506104513 | 13 | 74 | 1.6 | 12.9 | 0.00 | 0.00 | 0.00 | 91 | 1010.8 |
| 20260506104006 | 13 | 263 | 3.2 | 12.9 | 0.00 | 0.00 | 0.00 | 91 | 1010.8 |
| 20260506103507 | 13 | 201 | 1.6 | 8.0 | 0.00 | 0.00 | 0.00 | 91 | 1010.9 |
| 20260506103011 | 13 | 314 | 1.6 | 8.0 | 0.00 | 0.00 | 0.00 | 91 | 1010.8 |
| 20260506102507 | 13 | 207 | 1.6 | 12.9 | 0.00 | 0.00 | 0.00 | 91 | 1010.7 |
| 20260506102008 | 13 | 23 | 0.0 | 12.9 | 0.00 | 0.00 | 0.00 | 91 | 1010.8 |
| 20260506101526 | 13 | 338 | 3.2 | 9.7 | 0.00 | 0.00 | 0.00 | 91 | 1010.6 |
| 20260506101006 | 13 | 279 | 1.6 | 9.7 | 0.00 | 0.00 | 0.00 | 90 | 1010.6 |
| 20260506100505 | 13 | 340 | 1.6 | 11.3 | 0.00 | 0.00 | 0.00 | 90 | 1010.6 |
| 20260506100011 | 13 | 352 | 1.6 | 11.3 | 0.00 | 0.00 | 0.00 | 90 | 1010.6 |
| 20260506095505 | 13 | 343 | 3.2 | 11.3 | 0.00 | 0.00 | 0.00 | 90 | 1010.6 |
| 20260506095004 | 13 | 324 | 3.2 | 8.0 | 0.00 | 0.00 | 0.00 | 90 | 1010.6 |
| 20260506094520 | 12 | 321 | 3.2 | 9.7 | 0.00 | 0.00 | 0.00 | 90 | 1010.6 |
| 20260506094005 | 12 | 55 | 3.2 | 9.7 | 0.00 | 0.00 | 0.00 | 90 | 1010.6 |
| 20260506093502 | 13 | 115 | 0.0 | 4.8 | 0.00 | 0.00 | 0.00 | 90 | 1010.6 |
| 20260506093019 | 13 | 360 | 1.6 | 6.4 | 0.00 | 0.00 | 0.00 | 90 | 1010.6 |
| 20260506092507 | 13 | 352 | 1.6 | 6.4 | 0.00 | 0.00 | 0.00 | 89 | 1010.6 |
| 20260506092007 | 13 | 288 | 1.6 | 8.0 | 0.00 | 0.00 | 0.00 | 89 | 1010.6 |
| 20260506091517 | 13 | 309 | 1.6 | 12.9 | 0.00 | 0.00 | 0.00 | 89 | 1010.6 |
| 20260506091008 | 13 | 245 | 1.6 | 12.9 | 0.00 | 0.00 | 0.00 | 89 | 1010.6 |
| 20260506090508 | 13 | 336 | 1.6 | 9.7 | 0.00 | 0.00 | 0.00 | 89 | 1010.8 |
| 20260506090041 | 13 | 342 | 1.6 | 9.7 | 0.00 | 0.00 | 0.00 | 89 | 1010.8 |
| 20260506085511 | 13 | 49 | 1.6 | 6.4 | 0.00 | 0.00 | 0.00 | 89 | 1010.8 |
| 20260506085008 | 13 | 37 | 1.6 | 9.7 | 0.00 | 0.00 | 0.00 | 89 | 1010.8 |
| 20260506084514 | 13 | 80 | 3.2 | 16.1 | 0.00 | 0.00 | 0.00 | 89 | 1010.8 |
| 20260506084003 | 13 | 298 | 3.2 | 16.1 | 0.00 | 0.00 | 0.00 | 88 | 1010.8 |
| 20260506083505 | 13 | 352 | 1.6 | 6.4 | 0.00 | 0.00 | 0.00 | 88 | 1010.7 |
| 20260506083017 | 13 | 294 | 1.6 | 8.0 | 0.00 | 0.00 | 0.00 | 88 | 1010.8 |
| 20260506082505 | 13 | 284 | 3.2 | 8.0 | 0.00 | 0.00 | 0.00 | 88 | 1011.0 |
| 20260506082007 | 13 | 267 | 4.8 | 12.9 | 0.00 | 0.00 | 0.00 | 88 | 1011.0 |
| 20260506081524 | 13 | 298 | 3.2 | 12.9 | 0.00 | 0.00 | 0.00 | 88 | 1011.0 |
| 20260506081007 | 13 | 331 | 1.6 | 12.9 | 0.00 | 0.00 | 0.00 | 88 | 1011.0 |
| 20260506080508 | 13 | 352 | 3.2 | 12.9 | 0.00 | 0.00 | 0.00 | 88 | 1011.0 |
| 20260506073507 | 13 | 310 | 3.2 | 14.5 | 0.00 | 0.00 | 0.00 | 87 | 1011.1 |
| 20260506073028 | 13 | 297 | 3.2 | 14.5 | 0.00 | 0.00 | 0.00 | 87 | 1011.1 |
| 20260506072513 | 13 | 325 | 4.8 | 12.9 | 0.00 | 0.00 | 0.00 | 87 | 1011.1 |
| 20260506072006 | 13 | 338 | 4.8 | 12.9 | 0.00 | 0.00 | 0.00 | 86 | 1011.0 |
| 20260506071519 | 13 | 333 | 1.6 | 12.9 | 0.00 | 0.00 | 0.00 | 86 | 1011.0 |
| 20260506071007 | 13 | 272 | 3.2 | 12.9 | 0.00 | 0.00 | 0.00 | 86 | 1010.9 |
| 20260506070507 | 13 | 331 | 1.6 | 11.3 | 0.00 | 0.00 | 0.00 | 86 | 1010.9 |
| 20260506062502 | 14 | 14 | 3.2 | 12.9 | 0.00 | 0.00 | 0.00 | 84 | 1010.9 |
| 20260506062004 | 14 | 273 | 3.2 | 12.9 | 0.00 | 0.00 | 0.00 | 84 | 1010.9 |
| 20260506061538 | 14 | 296 | 4.8 | 16.1 | 0.00 | 0.00 | 0.00 | 84 | 1011.0 |
| 20260506061004 | 14 | 261 | 1.6 | 17.7 | 0.00 | 0.00 | 0.00 | 84 | 1011.0 |
| 20260506060504 | 14 | 273 | 3.2 | 17.7 | 0.00 | 0.00 | 0.00 | 84 | 1011.0 |